Zurück zum Katalog

COSMOS 939

AktivMilitärLEO
NORAD 10282·PAYLOAD·🇷🇺 Russia

Gestartet Aug 24, 1977 von Plesetsk Cosmodrome

Loading…

Nächste Überflüge (nächste 24 Stunden)

TLE

AktuellSource: Space-Track

Epoche: Sep 14, 2026, 06:13 UTC

1 10282U 77079A   26257.25907100 -.00000012  00000-0  26620-4 0  9993
2 10282  74.0284  13.8402 0019874 319.3279  60.2353 12.54294054219109

Verfolge COSMOS 939 in Echtzeit mit AllMySat

Download on the App Store